User: anonymous   Login
Location: Unspecified
(0.0000°N, 0.0000°E)
Time: 10:12:35
(UTC+00:00)
Language:

Intasat - Orbit

View from above orbital plane
View from above orbital plane
View from above satellite
View from above satellite

Ground track
Ground track

The orbit data is extracted from the following two-line orbital elements,

1  7531U 74089C   19023.57307833 -.00000058 +00000-0 -83771-4 0  9990
2  7531 101.7221 352.9730 0011041 280.6116 196.1870 12.53494293021773
Epoch (UTC): 23 January 2019 13:45:13
Eccentricity: 0.0011041
inclination: 101.7221°
perigee height: 1441 km
apogee height: 1458 km
right ascension of ascending node: 352.9730°
argument of perigee: 280.6116°
revolutions per day: 12.53494293
mean anomaly at epoch: 196.1870°
orbit number at epoch: 2177

The dashed part of the orbit path shows where the satellite is in the earth's shadow,  

DLR